Location: Champseau
(45.8333°N, 1.7667°E)
Time: 07:24:31
(UTC+00:00)

Cosmos 405 Rocket - Pass Details

Date: 18 April 2021
Orbit: 489 x 553 km, 81.3° (Epoch: 05 May)

Event Time Altitude Azimuth Distance (km) Brightness Sun altitude
Rises 21:04:49 0° 339° (NNW) 2,729 7.5 -21.8°
Reaches altitude 10° 21:07:11 10° 329° (NNW) 1,823 6.5 -22.0°
Maximum altitude 21:10:42 30° 268° (W) 984 4.4 -22.5°
Enters shadow 21:12:24 22° 226° (SW) 1,220 4.5 -22.7°
